Location: ?????
(55.8833°N, 37.6500°E)
Time: 08:45:19
(UTC+00:00)

Cosmos 1656 Rocket - Pass Details

Date: 27 February 2020
Orbit: 794 x 848 km, 71.1° (Epoch: 27 March)

Event Time Altitude Azimuth Distance (km) Brightness Sun altitude
Rises 16:37:41 0° 211° (SSW) 3,336 7.1 -14.7°
Reaches altitude 10° 16:40:05 10° 212° (SSW) 2,416 6.4 -15.0°
Maximum altitude 16:45:38 89° 120° (ESE) 839 3.6 -15.8°
Drops below altitude 10° 16:51:19 10° 35° (NE) 2,466 5.9 -16.6°
Sets 16:53:47 0° 35° (NE) 3,411 6.6 -16.9°
